sat.trackr.live / text

‹ back to catalog

2023-091R

NORAD 57181 · 2023-091R

PAYLOAD ACTIVE UNKNOWN

§ Identity

Operator
Country
CIS
Launch date
2023-06-27
Launch site
VOSTO
Launch vehicle
Mass (kg)
RCS (m²)

External: N2YO · Heavens-Above · Gunter

§ Orbital elements

Epoch: 2026-09-21T22:31:08.378688Z

Period
95.05 min
Inclination
97.4964°
Eccentricity
0.0015492
Mean motion
15.14955252 rev/d
Perigee alt
510.4 km
Apogee alt
531.8 km
Semi-major
6,899.3 km
B*
8.9310e-5
RAAN
317.5820°
Arg perigee
157.4021°
Mean anomaly
202.7897°
Rev number
17,833

§ Raw data

2023-091R1 57181U 23091R   26264.93829142  .00001603  00000+0  89310-4 0  99992 57181  97.4964 317.5820 0015492 157.4021 202.7897 15.14955252178336

JSON: /api/v1/satellites/57181 · /tle

For live sub-satellite position, see the globe view (requires WebGL).

§ Visibility from observer

Set your observer location to see the next 7 days of passes ≥ 10°. The values pass through the URL so the page stays shareable.

No JS? Fill the form by hand. The geolocation button needs JavaScript.